EHI
0 0 0 0 0 0 0 0 0 0 0 0 0 0 1 3 3 2 2 6 9 12 14 17 20 20 18 16 16 18 19 18 18 18 19 18 15 12 9 8 7 5 5 5
0 0 0 0 0 0 0 0 0 0 0 0 0 1 2 2 2 2 2 6 10 12 15 19 22 21 18 15 14 16 17 16 16 16 16 17 16 12 10 8 7 6 5 5
0 0 0 0 0 0 0 0 0 0 0 0 0 1 1 1 1 1 2 6 10 14 17 21 24 22 17 13 12 13 13 12 13 13 12 14 14 12 10 9 8 6 5 4
0 0 0 0 0 0 0 0 0 0 0 0 0 0 0 0 0 1 3 7 11 15 16 19 23 22 17 12 10 10 9 9 10 11 11 11 11 10 10 9 9 7 5 4
0 0 0 0 0 0 0 0 0 0 0 0 0 0 0 0 0 1 3 7 11 13 14 16 18 19 16 12 10 9 8 8 10 11 11 10 10 9 9 9 9 8 6 5
0 0 0 0 0 0 0 0 0 0 0 0 0 0 0 0 0 2 4 7 10 12 13 14 15 15 15 13 11 10 9 8 10 11 12 10 9 8 7 7 7 7 6 6
0 0 0 0 0 0 0 0 0 0 0 0 0 0 0 0 1 3 6 8 10 11 13 14 14 15 17 16 13 12 10 9 9 11 12 10 8 7 6 5 5 5 5 5
0 0 0 0 0 0 0 0 0 0 0 0 0 0 0 0 1 3 7 10 10 10 12 13 13 15 18 18 16 14 12 11 10 11 12 10 8 8 7 6 6 6 5 5
0 0 0 0 0 0 0 0 0 0 0 0 0 0 0 0 0 2 6 8 8 8 9 11 11 11 13 15 16 15 13 12 12 12 12 10 9 9 8 7 6 6 5 4
0 0 0 0 0 0 0 0 0 0 0 0 0 0 0 0 0 2 5 7 6 5 7 8 8 7 7 9 11 12 12 12 12 11 10 8 7 7 6 5 4 4 3 3
0 0 0 0 0 0 0 0 0 0 0 0 0 0 0 0 0 1 4 5 5 4 4 5 5 4 4 4 5 8 9 10 10 9 8 6 5 4 4 4 3 3 1 1
0 0 0 0 0 0 0 0 0 0 0 0 0 0 0 0 0 1 3 4 3 2 3 4 3 3 3 3 3 6 8 9 7 6 6 6 5 4 4 4 3 2 1 0
0 0 0 0 0 0 0 0 0 0 0 0 0 0 1 1 0 1 2 3 2 2 2 3 3 3 3 3 4 6 8 8 5 4 5 5 5 5 5 4 3 1 0 0
0 0 0 0 0 0 0 0 0 0 0 0 0 0 1 2 1 1 2 3 2 1 2 2 2 2 1 2 4 6 7 6 4 3 4 4 4 4 5 3 1 0 0 0
0 0 0 0 0 0 0 0 0 0 0 0 0 0 1 2 1 1 2 3 2 1 1 1 1 1 0 0 2 4 5 5 4 3 3 3 3 3 2 1 0 0 0 0
0 0 0 0 0 0 0 0 0 0 0 0 0 0 0 1 1 1 1 3 3 1 0 0 0 0 0 0 0 2 3 4 4 4 4 3 2 1 1 0 0 0 0 0
0 0 0 0 0 0 0 0 0 0 0 0 0 0 1 2 2 2 2 2 2 1 0 0 0 0 0 0 0 0 1 1 3 4 4 3 1 0 0 0 0 0 0 0
0 0 0 0 0 0 0 0 0 0 0 0 0 1 3 2 2 3 3 2 1 1 0 0 0 0 0 0 0 0 0 0 1 2 3 2 1 0 0 0 0 0 0 0
0 0 0 0 0 0 0 0 0 0 0 0 1 2 2 2 3 5 4 2 1 0 0 0 0 0 0 0 0 0 0 0 0 0 1 1 0 0 0 0 0 0 0 0
0 0 0 0 0 0 0 0 0 0 0 0 1 1 1 1 3 4 4 3 1 1 0 0 0 0 0 0 0 0 0 0 0 0 0 0 0 0 0 0 0 0 0 0
0 0 0 0 0 0 0 0 0 0 0 0 0 0 0 0 1 2 3 2 2 2 1 1 0 0 0 0 0 0 0 0 0 0 0 0 0 0 0 0 0 0 0 0
0 0 0 0 0 0 0 0 0 0 0 0 0 0 0 0 0 1 1 1 2 3 3 2 1 0 0 0 0 0 0 0 0 0 0 0 0 0 0 0 0 0 0 0
0 0 0 0 0 0 0 0 0 0 0 0 0 0 0 0 0 0 0 0 1 2 3 2 1 0 0 0 0 0 0 0 0 0 0 0 0 0 0 0 0 0 0 0
0 0 0 0 0 0 0 0 0 0 0 0 0 0 0 0 0 0 0 0 0 1 1 1 0 0 0 0 0 0 0 0 0 0 0 0 0 0 0 0 0 0 0 0
0 0 0 0 0 0 0 0 0 0 0 0 0 0 0 0 0 0 0 0 0 0 0 0 0 0 0 0 0 0 0 0 0 0 0 0 0 0 0 0 0 0 0 0
0 0 0 0 0 0 0 0 0 0 0 0 0 0 0 0 0 0 0 0 0 0 0 0 0 0 0 0 0 0 0 0 0 0 0 0 0 0 0 0 0 0 0 0
Wind_Speed
3 2 6 10 10 10 8 7 8 9 6 1 3 5 5 3 4 6 6 7 7 7 5 7 7 8 7 6 6 7 6 5 5 4 4 3 3 3 2 2 4 5 4 4
2 7 15 11 8 8 9 8 8 7 4 2 2 3 4 3 5 6 7 7 7 5 5 6 6 6 7 7 6 6 6 6 5 4 3 3 3 3 3 2 3 4 5 4
9 12 10 9 8 7 9 8 8 6 4 2 1 3 3 3 2 3 4 5 6 8 8 7 7 6 6 6 6 6 6 6 5 5 3 3 2 2 1 2 2 3 4 4
8 11 8 7 8 7 7 7 6 4 0 3 2 2 6 4 2 3 4 4 5 7 8 8 8 7 7 7 6 5 5 5 5 5 5 5 4 3 3 3 3 3 3 4
7 5 5 7 8 5 7 5 3 2 1 1 1 2 6 1 3 4 4 5 5 7 8 8 9 8 8 7 6 5 5 4 4 5 5 5 3 2 2 2 3 2 2 3
10 7 5 6 6 4 2 3 5 4 4 1 4 3 5 4 6 4 4 4 5 6 6 6 6 6 6 5 5 6 6 4 4 4 5 5 5 4 4 3 3 2 1 1
7 7 5 3 3 4 3 5 4 5 4 4 3 2 6 6 5 6 6 5 5 5 6 6 7 7 7 7 7 6 6 4 4 4 5 5 5 5 5 4 3 2 2 2
2 7 5 3 4 4 3 7 6 5 4 4 2 2 5 4 2 5 5 5 5 5 6 7 7 7 7 8 7 7 6 5 4 4 4 4 4 3 3 3 3 3 3 3
4 6 5 4 3 4 3 3 7 6 2 1 3 2 3 2 2 3 4 5 5 5 5 6 6 6 7 7 7 7 7 6 5 4 4 4 4 3 3 3 3 2 2 2
5 4 7 5 2 2 5 4 4 4 3 3 3 3 4 3 3 3 4 5 4 5 5 5 5 5 5 6 6 6 6 6 5 4 4 4 4 4 4 3 3 3 3 2
3 3 6 3 2 3 1 1 3 3 4 5 3 6 4 7 6 5 5 6 6 6 6 5 5 5 5 5 5 5 5 5 4 4 4 4 3 3 3 3 4 3 3 2
2 4 3 6 6 3 3 4 5 4 3 3 3 6 3 5 5 5 4 4 5 6 6 5 5 4 4 5 5 5 5 5 5 5 5 4 4 3 3 3 3 3 3 2
2 5 1 7 7 4 1 1 3 4 4 3 3 5 2 1 3 4 4 4 5 5 5 4 4 4 4 4 4 5 5 5 4 4 5 4 4 4 3 3 3 3 3 3
3 4 6 7 7 4 3 4 1 3 3 3 5 5 3 3 3 4 4 5 5 5 5 4 4 4 4 4 4 4 4 5 5 4 4 4 4 4 4 3 3 3 3 3
3 2 4 5 4 1 3 4 3 2 5 6 6 6 7 6 5 5 6 6 6 6 5 5 4 3 3 3 3 3 4 4 5 4 4 4 3 3 3 2 2 2 3 3
3 1 1 3 3 2 3 4 4 3 2 3 3 4 5 3 3 4 5 7 7 7 6 6 5 4 4 4 3 3 3 3 4 4 3 3 2 2 2 2 2 2 2 2
1 1 1 3 4 2 3 3 1 1 2 2 3 4 0 2 3 4 5 6 6 6 6 6 5 4 4 4 4 4 3 3 4 4 3 3 3 2 2 3 2 2 3 2
3 2 2 1 1 3 5 1 1 3 3 2 2 1 2 3 3 3 4 4 4 4 5 5 5 4 3 3 2 3 3 3 3 3 3 3 3 3 2 2 2 3 2 2
6 5 2 2 2 3 3 3 1 1 2 4 3 3 3 2 4 3 1 3 3 4 4 4 5 4 3 3 3 2 2 2 3 3 3 3 3 3 3 3 3 2 2 2
3 4 3 2 2 3 3 5 4 2 0 2 3 3 1 4 2 2 2 2 2 3 4 4 4 3 3 2 3 3 2 3 3 3 4 3 3 4 4 4 3 2 2 3
3 2 1 2 2 3 4 6 3 2 4 2 2 3 2 1 3 4 2 2 3 4 4 5 5 4 3 3 3 3 2 3 4 3 3 3 3 4 4 3 3 2 2 2
1 0 1 2 1 4 4 3 1 4 2 1 1 2 3 2 1 0 1 2 3 3 3 4 4 3 2 3 3 3 3 3 2 2 2 3 3 3 3 3 3 2 2 3
1 1 2 2 3 4 2 1 2 2 1 1 1 0 2 2 1 1 1 2 3 4 3 3 3 3 2 2 3 3 3 3 2 2 2 3 3 3 3 3 3 2 3 3
4 3 2 1 1 3 3 2 2 0 1 0 1 1 2 2 2 2 2 2 2 2 3 2 3 3 3 3 3 3 3 3 3 3 2 2 3 3 3 3 3 3 3 3
5 3 2 1 2 3 4 3 2 2 2 2 0 1 2 3 3 3 2 2 2 2 2 3 4 4 4 3 2 2 2 2 2 3 3 3 3 3 4 4 4 5 5 6
3 1 0 2 4 2 4 3 2 2 2 2 2 1 1 3 3 2 2 2 2 2 2 2 2 3 3 3 3 3 2 2 3 3 3 3 3 3 3 3 3 6 6 7
Wind_Direction
243 154 236 232 214 215 237 254 268 268 265 222 236 235 233 212 160 162 166 173 177 182 176 154 156 150 140 137 137 143 143 144 141 145 150 145 156 163 159 168 161 153 149 146
333 252 243 242 244 237 244 251 262 277 271 200 221 252 240 213 190 176 169 178 178 164 156 155 154 153 149 148 144 145 152 154 157 156 161 157 156 170 173 170 155 160 152 151
218 244 248 245 250 253 260 238 240 246 292 323 70 317 279 271 201 158 162 167 163 161 160 157 159 160 152 151 160 163 160 157 155 147 126 113 95 90 112 135 157 172 161 156
243 251 260 260 249 233 260 251 233 231 243 282 170 248 273 243 212 178 172 168 173 175 167 165 166 168 166 167 163 160 159 154 150 145 147 149 155 167 182 175 177 175 170 167
257 261 257 257 247 232 239 249 237 236 193 315 340 164 273 241 214 213 190 182 181 179 175 176 174 174 170 162 155 153 144 145 150 150 153 150 153 166 162 155 159 168 181 184
255 263 233 237 255 235 215 44 18 27 64 312 244 177 262 235 212 200 184 183 183 175 174 173 166 156 148 145 146 145 141 145 152 158 160 157 160 159 154 164 168 174 185 202
285 288 263 240 287 318 64 78 26 356 4 258 264 177 244 245 203 183 181 187 183 167 160 152 151 150 152 155 158 154 150 155 162 159 164 167 165 163 169 174 176 171 178 200
253 286 274 247 206 214 212 144 162 202 225 266 306 234 258 263 190 167 165 163 152 148 155 158 161 157 159 160 160 158 155 160 167 165 166 163 162 165 172 175 173 182 192 204
200 256 279 266 242 167 184 192 178 154 201 233 259 247 298 352 89 109 134 140 153 161 158 155 154 156 163 161 163 166 164 164 170 169 158 156 160 158 162 169 170 175 195 204
175 251 281 285 352 324 169 164 91 118 168 243 260 235 227 220 183 155 151 157 166 159 148 141 144 155 164 163 163 163 167 173 174 170 170 164 167 166 167 163 171 183 198 207
153 184 288 325 213 245 298 113 118 136 164 169 237 263 226 192 189 177 183 180 169 161 156 154 155 159 158 152 154 158 162 166 173 174 169 160 166 169 165 168 183 185 186 189
158 137 254 266 261 228 195 186 149 156 236 180 184 259 274 179 182 169 170 170 156 156 156 154 154 146 142 158 166 168 170 171 180 177 169 170 169 164 169 182 190 184 184 191
122 111 38 333 334 347 5 281 163 149 141 169 178 249 282 175 163 160 157 151 144 147 146 144 144 148 150 155 169 173 176 177 175 171 170 172 171 171 182 193 196 193 191 198
107 129 166 205 231 265 293 306 287 130 160 206 215 222 252 236 180 166 158 149 146 148 145 143 151 157 160 159 159 167 173 171 164 159 164 173 181 188 194 192 192 193 193 196
80 170 214 232 248 276 300 308 314 230 195 195 225 212 227 219 194 174 157 146 141 143 146 151 155 161 159 156 155 159 170 172 167 160 166 182 183 182 181 183 193 197 199 210
40 189 288 293 279 305 320 313 306 274 231 190 195 242 236 202 148 134 144 150 153 161 163 162 160 162 166 167 167 161 158 176 164 163 179 182 173 170 179 192 192 197 214 218
337 104 66 270 294 338 295 285 278 42 18 143 203 239 193 104 144 159 163 164 166 170 168 169 169 174 175 177 172 174 178 171 159 164 175 179 179 181 203 204 189 209 231 231
178 149 162 239 8 228 239 318 73 85 34 30 79 71 117 151 157 152 141 143 152 164 166 170 169 166 167 167 168 168 158 152 161 172 182 185 186 197 205 200 207 230 240 235
169 154 154 155 191 260 296 334 344 119 19 14 66 62 39 51 75 44 72 135 175 180 168 170 166 158 151 156 168 154 154 156 162 180 190 190 188 193 200 212 222 227 228 244
69 108 135 153 167 228 264 301 300 121 293 350 76 91 46 30 54 281 279 163 150 147 148 148 142 130 137 159 156 144 158 161 186 202 204 196 189 193 202 214 222 226 222 238
18 15 154 180 209 259 295 317 7 133 238 262 124 133 119 135 215 249 236 179 159 150 146 142 141 148 163 164 146 155 173 197 213 210 202 199 200 200 205 212 218 221 227 243
144 142 196 146 178 263 311 16 96 229 249 220 155 160 149 174 197 261 146 148 137 127 130 138 143 157 175 168 158 172 200 212 204 198 202 209 213 220 216 208 222 221 215 235
63 204 196 172 202 249 283 190 226 178 177 189 123 201 143 133 133 120 130 150 145 144 146 153 156 163 186 182 169 188 218 208 188 190 216 223 222 228 219 208 215 227 221 223
333 352 69 65 308 309 333 348 339 110 144 191 148 183 152 149 146 136 145 151 156 155 164 174 166 172 199 204 191 198 214 206 187 204 229 234 231 238 233 221 214 216 220 226
309 337 11 339 301 348 346 340 318 339 29 44 42 191 168 144 141 147 157 169 182 183 181 183 188 193 205 198 198 208 208 199 202 214 226 240 239 235 234 231 227 225 227 218
318 312 171 262 271 253 280 301 344 11 5 9 31 42 129 143 156 156 171 193 187 194 196 200 210 205 200 193 203 216 214 197 195 213 228 237 240 240 234 236 257 253 243 241